Temperature
15 15 15 16 16 16 16 16 16 17 16 16 16 16 17 17 17 17 16 16 15 15 14 14 14 13 13 13 13 12 12 12 12 11 11 11 11 11 11 11 10 10 10
14 14 15 15 16 16 16 16 16 16 16 16 17 17 17 17 17 17 16 16 16 15 15 14 14 14 13 13 12 12 12 12 12 11 10 10 10 11 11 11 11 10 10
13 13 14 14 15 15 16 16 16 16 16 16 16 16 16 16 16 16 17 17 16 16 16 15 14 14 13 13 13 13 12 12 12 11 10 10 11 11 11 11 11 10 10
12 12 12 13 14 15 15 15 16 16 16 16 16 15 15 15 16 16 16 17 16 16 16 15 14 14 13 13 13 13 12 12 11 11 11 11 11 11 11 11 11 10 10
11 11 12 13 13 14 14 15 15 15 15 15 15 15 15 15 15 15 15 16 16 16 15 15 14 13 13 13 13 13 12 12 11 11 11 10 10 10 10 10 10 10 9
10 10 11 12 13 13 14 14 14 14 14 14 14 14 14 15 14 14 15 15 15 15 15 15 14 13 13 13 12 12 12 12 11 11 11 11 10 10 10 9 9 9 9
10 10 10 11 12 12 13 13 13 13 14 14 14 14 14 14 14 14 14 14 14 14 14 14 13 13 12 12 12 11 11 11 11 10 10 10 10 9 9 8 8 8 8
9 10 10 10 11 12 12 12 12 13 13 13 13 13 13 13 13 13 13 13 13 13 13 13 13 12 11 11 11 11 11 11 10 10 10 9 9 8 8 7 7 6 6
9 9 9 10 10 11 11 11 12 12 12 12 12 13 13 12 12 12 12 12 12 12 12 12 12 11 11 11 10 10 10 10 10 9 9 8 8 7 7 6 6 5 4
9 9 9 9 10 10 10 10 11 11 11 11 11 12 12 12 11 11 11 11 11 11 11 11 10 10 10 10 10 10 9 9 9 9 8 7 7 6 6 5 4 4 3
8 8 8 8 9 9 9 9 9 10 10 10 10 10 10 10 10 10 10 10 10 10 10 10 10 9 9 9 9 9 9 8 8 8 7 6 5 5 4 4 3 3 2
8 7 7 7 8 8 8 8 8 8 9 9 9 9 9 9 9 9 9 9 9 9 9 9 9 8 8 8 8 8 8 7 7 6 5 5 4 4 3 3 2 2 1
7 7 6 7 7 7 7 7 7 7 8 8 8 8 8 8 8 8 8 8 8 8 7 8 7 7 7 7 7 7 6 6 5 5 4 3 3 3 2 2 1 0 0
7 6 6 6 6 6 6 6 6 6 7 7 7 7 7 7 7 7 7 7 6 6 6 6 6 6 6 6 6 5 5 4 4 3 3 2 2 1 1 1 0 -0 -1
6 6 5 5 5 5 5 5 6 6 6 6 6 6 6 5 5 5 5 5 5 5 5 5 5 4 4 4 4 4 3 3 2 2 1 1 1 0 -0 -0 -1 -1 -2
6 5 5 5 5 5 5 5 5 5 5 5 5 4 4 4 5 4 4 4 4 4 4 4 3 3 3 2 2 2 1 1 1 1 0 0 -0 -1 -1 -1 -2 -2 -3
5 5 5 4 4 4 4 4 4 4 4 4 4 4 4 4 4 3 3 3 3 3 2 2 2 2 1 1 0 0 0 0 -0 -0 -0 -1 -1 -1 -2 -2 -3 -3 -4
5 5 4 4 4 4 4 4 3 3 4 3 3 3 3 3 2 2 2 2 2 1 1 1 1 0 -0 -0 -0 -1 -1 -1 -1 -1 -1 -2 -2 -2 -3 -3 -3 -4 -4
5 4 4 4 3 3 3 3 3 3 3 3 2 2 2 2 1 1 1 1 1 0 0 -0 -1 -1 -1 -1 -1 -1 -1 -2 -2 -2 -2 -2 -3 -3 -4 -4 -4 -5 -5
5 4 4 3 3 3 3 2 2 2 2 2 2 2 1 1 1 1 0 0 -0 -0 -1 -1 -1 -1 -1 -1 -2 -2 -2 -2 -2 -3 -3 -3 -3 -4 -5 -5 -6 -6 -6
4 4 3 3 2 2 2 2 2 2 2 2 1 1 1 0 0 0 -0 -0 -0 -1 -1 -1 -2 -2 -2 -2 -2 -2 -3 -3 -3 -4 -4 -4 -4 -5 -5 -6 -6 -6 -6
4 3 3 2 2 2 2 2 2 1 1 1 1 1 0 0 -0 -0 -1 -1 -1 -1 -1 -2 -2 -2 -2 -3 -3 -3 -3 -4 -4 -4 -5 -5 -5 -5 -6 -6 -6 -6 -6
3 2 2 2 2 1 1 1 1 1 1 1 1 1 0 -0 -0 -1 -1 -1 -1 -1 -2 -2 -2 -3 -3 -3 -3 -4 -4 -4 -5 -5 -5 -5 -6 -6 -6 -6 -6 -6 -6
3 2 2 2 1 1 1 1 1 1 1 1 1 0 0 -1 -1 -1 -1 -1 -2 -2 -2 -2 -3 -3 -3 -4 -4 -5 -5 -5 -5 -6 -6 -6 -6 -6 -6 -7 -7 -7 -7
3 2 2 2 1 1 1 1 1 1 1 1 1 0 -0 -1 -1 -1 -1 -2 -2 -2 -2 -3 -3 -4 -4 -4 -5 -5 -5 -6 -6 -6 -6 -7 -7 -7 -7 -7 -7 -7 -7
3 2 2 2 1 1 1 1 1 1 1 1 0 -0 -0 -1 -1 -1 -2 -2 -2 -2 -3 -3 -3 -4 -4 -5 -5 -6 -6 -6 -6 -7 -7 -7 -7 -7 -7 -7 -7 -7 -7
Wind_Speed
10 8 7 8 8 9 11 12 13 13 12 10 11 11 12 12 12 13 17 18 18 19 18 13 14 14 13 14 14 12 11 9 8 6 5 6 7 8 7 9 9 10 11
9 7 6 6 7 8 9 10 11 12 12 12 11 10 11 10 12 11 14 19 20 20 18 17 15 15 14 16 16 14 10 8 9 8 5 5 7 8 9 8 8 10 10
8 6 5 4 4 5 5 6 8 10 11 12 10 8 9 8 10 13 14 17 20 21 20 19 17 16 16 15 17 17 16 12 11 10 8 6 8 5 6 9 9 9 8
3 3 2 2 2 3 3 4 5 7 8 9 10 13 12 13 15 13 13 15 17 19 20 19 18 17 15 16 17 17 15 14 11 9 9 6 3 5 5 5 8 9 9
1 1 1 0 1 2 2 3 4 4 5 7 9 12 13 14 13 13 14 14 14 16 17 18 16 16 15 17 16 16 17 14 13 10 7 7 4 4 5 4 5 6 6
3 3 2 2 2 3 3 2 2 3 4 6 8 10 13 14 14 15 14 13 11 12 15 16 16 16 14 15 15 15 17 14 13 10 8 6 5 6 6 5 3 4 4
4 4 4 4 4 5 5 4 3 3 4 5 7 9 11 13 15 15 14 14 12 11 13 13 14 13 13 12 12 12 13 13 12 10 8 6 5 3 4 4 3 2 2
4 4 4 4 5 5 5 5 5 5 5 5 6 7 9 9 10 12 12 12 11 11 11 12 11 11 10 10 9 8 9 8 9 9 7 5 3 3 3 3 4 3 2
4 4 4 5 5 5 6 6 6 6 6 6 7 7 8 9 10 11 11 9 9 7 9 9 9 9 9 9 9 7 8 8 7 7 7 6 5 4 4 3 3 4 4
4 4 4 5 5 5 6 6 7 7 7 7 6 6 7 8 8 7 7 7 8 7 7 7 8 8 8 8 8 8 8 9 8 7 9 7 6 5 5 4 4 3 2
3 3 3 4 5 5 6 6 7 7 7 8 7 7 6 6 5 4 5 5 4 5 6 7 7 7 8 9 9 9 11 11 10 9 10 9 8 7 5 4 4 3 2
2 2 2 3 4 5 6 6 7 7 7 7 7 6 6 5 3 2 2 1 2 3 4 6 7 8 8 9 10 11 11 11 11 10 10 10 7 7 6 4 3 2 3
1 0 1 2 4 5 5 6 6 7 7 7 6 6 6 6 5 4 4 4 4 5 6 7 8 8 9 9 10 11 11 10 10 10 10 9 8 7 5 4 3 2 3
1 0 1 2 3 4 4 5 6 6 6 6 6 6 6 6 6 7 8 8 8 8 9 9 9 9 9 10 10 11 11 11 10 9 9 8 7 6 5 4 3 3 3
1 0 1 2 3 3 4 5 5 5 5 6 6 7 7 8 8 9 10 10 11 10 10 11 11 10 9 9 11 11 11 11 10 9 8 7 6 5 3 2 3 3 4
1 0 1 1 2 3 3 4 5 5 5 6 7 7 8 9 9 10 10 11 11 11 11 11 11 11 9 14 15 12 10 10 9 8 7 6 5 3 3 3 4 5 5
1 1 1 1 1 2 2 3 4 4 6 7 7 7 8 9 9 10 11 11 11 11 12 11 12 12 14 16 16 14 10 9 7 6 5 3 3 2 2 3 5 6 7
2 2 1 2 2 2 3 3 4 5 7 7 8 8 8 9 9 10 11 11 10 10 10 11 12 12 13 15 15 14 9 7 6 4 3 2 2 2 3 4 5 6 7
2 2 2 3 3 3 4 5 5 6 7 8 7 7 8 9 10 10 10 10 10 10 10 10 10 11 11 13 13 10 6 5 4 3 2 1 1 2 6 6 6 8 7
3 3 4 4 4 4 5 6 6 6 7 7 7 8 8 9 9 9 9 9 9 9 9 9 8 9 9 11 10 7 4 3 2 1 1 1 3 4 6 6 7 8 8
4 5 5 4 4 5 6 6 6 6 7 8 8 9 9 9 9 9 8 9 9 9 9 9 7 7 8 8 7 5 2 1 1 0 1 1 4 7 7 8 7 8 10
5 5 5 5 5 5 6 7 7 7 7 8 9 9 8 8 7 9 8 8 8 8 8 7 6 5 5 5 5 4 3 2 1 1 2 3 6 8 8 7 7 10 9
6 6 6 6 5 5 6 8 7 7 8 9 9 9 8 7 7 7 7 6 6 5 5 4 4 3 3 3 3 3 2 3 2 2 4 6 7 7 6 6 8 7 5
7 7 7 7 6 6 6 7 8 8 9 9 8 8 7 7 6 5 5 5 4 4 4 3 3 2 2 1 1 1 1 2 3 3 4 5 5 5 5 5 4 4 5
7 7 7 7 7 7 7 7 8 9 9 9 8 7 6 6 6 5 4 4 3 2 3 3 2 2 1 1 3 3 3 4 4 4 4 4 4 4 4 4 4 4 5
8 8 8 8 8 8 8 8 8 9 9 8 7 6 6 5 5 6 6 7 6 6 5 4 2 1 1 2 3 4 4 5 5 4 4 4 4 5 5 5 5 5 5
Wind_Direction
249 249 242 233 227 226 227 226 223 219 214 211 212 215 221 223 223 225 225 223 220 217 216 217 215 210 210 209 206 201 201 201 187 184 200 212 219 219 211 210 207 202 201
242 242 241 234 228 225 226 228 227 225 219 218 217 220 223 226 226 225 228 226 223 220 217 217 216 213 214 213 209 201 202 197 190 196 200 214 214 220 217 212 213 208 200
242 244 241 235 231 233 235 234 233 232 227 226 224 223 224 229 227 226 227 226 224 222 219 220 220 216 214 215 210 205 203 202 199 206 205 211 223 192 197 213 212 210 205
226 230 229 227 237 254 259 253 248 241 236 230 226 223 223 227 230 231 231 230 226 225 223 221 221 219 216 218 214 210 210 207 201 207 225 238 253 194 186 199 212 214 215
149 151 137 30 346 322 301 283 269 257 251 240 232 232 235 238 242 240 239 236 231 228 226 223 221 221 219 219 216 211 212 211 208 199 198 212 228 236 217 197 187 205 216
90 90 81 66 42 23 9 344 302 277 269 257 245 237 240 243 246 245 243 240 237 231 227 225 223 223 221 220 218 212 212 212 212 203 195 188 191 206 210 210 184 190 184
77 73 64 53 39 26 16 2 346 320 301 278 261 252 249 248 248 248 248 245 242 236 229 224 225 224 221 218 214 210 209 208 206 203 202 201 195 167 184 189 166 161 146
59 56 48 38 31 21 11 2 351 336 326 305 285 270 260 254 252 251 250 249 247 243 235 225 223 220 214 207 201 198 197 194 195 194 182 167 158 142 146 154 147 143 169
41 41 37 28 18 11 6 358 348 340 335 323 305 287 275 264 260 257 254 253 249 243 231 220 213 207 199 192 182 183 179 169 171 161 147 137 124 112 99 105 130 151 183
23 25 23 16 9 4 359 357 353 345 339 333 322 307 293 281 272 264 256 250 245 233 218 211 200 191 184 174 165 158 154 146 142 138 134 128 123 111 103 104 92 90 148
359 5 9 8 5 3 0 357 354 350 347 344 336 327 318 308 296 275 262 253 237 218 206 194 181 173 164 157 152 148 145 141 135 134 134 130 127 121 113 110 112 118 152
339 349 5 7 6 3 0 358 355 354 351 348 346 347 346 347 346 337 317 252 196 179 170 157 147 143 145 145 143 140 140 138 137 136 132 131 129 123 123 125 136 154 185
309 332 18 15 9 2 360 359 360 359 357 359 2 9 13 21 30 39 53 75 96 108 115 120 124 127 130 131 130 130 131 131 131 133 132 131 131 128 130 138 153 176 202
267 344 24 23 12 5 3 3 8 7 7 14 24 31 33 42 53 62 71 78 87 94 98 101 103 109 114 116 119 118 117 116 114 114 116 122 130 135 145 158 176 194 222
277 5 25 24 18 15 16 16 18 20 24 35 42 44 49 58 65 71 77 81 84 89 94 97 98 98 100 107 111 111 112 111 109 106 107 113 121 134 155 180 197 217 238
256 190 59 37 28 24 23 24 30 35 47 57 56 58 63 68 71 76 81 84 86 88 91 94 96 95 98 108 109 109 108 111 113 112 110 114 122 143 189 228 240 244 252
227 198 140 83 48 39 39 44 47 59 68 69 69 68 72 75 77 81 84 85 87 89 91 93 96 98 105 109 108 107 106 107 109 113 119 126 139 174 232 242 252 256 262
195 172 144 123 105 93 87 84 80 82 81 77 74 75 80 82 83 85 86 87 88 89 90 92 94 97 103 106 106 105 100 101 104 107 115 133 170 214 249 262 268 273 271
158 149 141 138 132 120 113 108 98 92 88 83 79 83 89 91 91 89 89 89 91 91 90 90 93 98 103 105 105 103 102 104 105 106 124 180 235 256 273 280 282 287 285
136 136 135 134 131 126 127 119 106 97 91 91 90 90 92 95 96 96 96 94 94 94 94 89 90 99 105 107 108 105 102 108 107 123 175 246 294 297 296 292 288 289 298
141 140 141 137 133 136 132 119 110 101 102 103 99 95 96 98 101 99 98 100 100 99 96 93 89 89 97 105 103 96 83 89 99 288 298 308 310 309 308 302 292 294 301
152 151 146 137 137 142 135 123 117 115 114 110 105 102 102 103 104 104 102 103 107 105 103 100 93 84 86 88 91 80 62 30 342 318 317 318 318 316 313 303 298 299 299
163 160 152 142 141 145 142 132 130 130 123 115 110 107 104 102 107 111 114 113 113 112 111 110 106 96 84 83 73 55 34 3 329 319 321 320 320 315 301 294 300 298 287
170 165 159 154 150 146 140 137 138 137 130 122 118 116 113 109 108 108 115 118 120 122 126 126 125 122 109 74 32 2 348 335 321 310 309 309 305 295 293 297 292 285 286
174 171 170 163 156 150 144 145 147 145 136 130 127 123 119 121 116 106 97 106 103 117 136 137 140 150 156 12 348 340 332 328 326 315 299 299 305 307 308 302 298 294 289
173 172 171 165 160 157 152 153 155 152 144 140 138 135 135 132 129 123 107 83 92 100 100 103 107 106 27 355 341 334 331 326 325 306 300 307 310 311 312 309 307 302 295
Height
1490 1491 1492 1493 1495 1497 1499 1501 1504 1506 1507 1509 1510 1511 1513 1514 1516 1517 1519 1520 1521 1523 1524 1525 1527 1528 1529 1530 1532 1534 1535 1536 1538 1539 1539 1539 1540 1540 1540 1540 1540 1540 1540
1485 1486 1487 1488 1490 1492 1494 1496 1498 1500 1502 1503 1505 1506 1508 1509 1510 1511 1513 1514 1515 1516 1518 1519 1520 1521 1523 1524 1526 1527 1529 1530 1532 1534 1535 1536 1536 1533 1534 1534 1535 1535 1535
1481 1482 1482 1483 1484 1486 1488 1490 1492 1494 1496 1497 1499 1500 1501 1502 1504 1505 1506 1507 1508 1509 1510 1512 1514 1515 1516 1517 1519 1520 1522 1524 1525 1527 1530 1530 1529 1528 1528 1528 1529 1529 1529
1477 1478 1478 1479 1480 1482 1484 1485 1487 1489 1490 1491 1492 1493 1494 1495 1496 1498 1499 1500 1501 1502 1503 1505 1506 1507 1509 1510 1512 1513 1515 1517 1518 1520 1521 1523 1523 1523 1522 1522 1523 1523 1524
1475 1475 1475 1476 1477 1478 1479 1480 1482 1483 1484 1485 1486 1487 1487 1489 1490 1491 1492 1493 1494 1495 1496 1497 1498 1500 1501 1503 1504 1506 1508 1509 1511 1511 1513 1514 1516 1516 1518 1517 1517 1517 1518
1474 1474 1474 1474 1475 1475 1475 1476 1477 1478 1479 1480 1480 1480 1481 1482 1483 1484 1484 1485 1486 1487 1488 1489 1490 1492 1493 1495 1496 1498 1500 1501 1503 1504 1506 1507 1508 1508 1510 1511 1511 1511 1512
1474 1473 1473 1473 1473 1473 1473 1473 1473 1474 1474 1474 1474 1474 1475 1475 1475 1476 1477 1477 1478 1478 1480 1481 1482 1483 1485 1487 1489 1490 1492 1494 1495 1497 1498 1500 1501 1502 1503 1504 1504 1505 1505
1473 1472 1472 1471 1471 1471 1471 1470 1470 1470 1469 1469 1469 1469 1468 1468 1468 1469 1469 1469 1470 1471 1472 1473 1474 1476 1477 1479 1481 1483 1484 1486 1488 1489 1491 1492 1493 1494 1496 1498 1499 1499 1500
1472 1471 1470 1470 1469 1469 1468 1467 1467 1466 1465 1464 1463 1463 1462 1462 1461 1461 1462 1462 1463 1464 1465 1466 1467 1468 1470 1471 1473 1475 1477 1479 1480 1482 1484 1485 1486 1488 1489 1491 1493 1495 1494
1471 1470 1469 1468 1467 1466 1465 1464 1463 1462 1461 1460 1458 1457 1456 1455 1455 1454 1454 1455 1455 1456 1457 1458 1459 1461 1462 1464 1466 1468 1470 1472 1473 1475 1477 1478 1480 1481 1483 1485 1486 1488 1490
1470 1469 1467 1466 1465 1464 1463 1461 1460 1459 1457 1455 1454 1452 1451 1450 1448 1448 1448 1448 1449 1449 1450 1452 1453 1454 1456 1457 1459 1461 1463 1465 1467 1469 1471 1473 1474 1476 1478 1481 1482 1483 1485
1468 1467 1466 1464 1463 1461 1460 1458 1457 1455 1454 1452 1450 1448 1446 1445 1444 1443 1443 1443 1443 1444 1445 1446 1447 1449 1451 1452 1454 1456 1458 1460 1462 1464 1466 1469 1471 1473 1475 1477 1478 1479 1480
1466 1465 1464 1462 1461 1459 1457 1456 1454 1452 1451 1449 1447 1445 1443 1442 1440 1440 1439 1439 1439 1440 1441 1442 1444 1445 1447 1448 1450 1452 1455 1457 1459 1462 1464 1466 1469 1470 1472 1473 1475 1475 1476
1464 1463 1461 1460 1458 1456 1455 1453 1452 1450 1448 1447 1445 1443 1441 1440 1439 1438 1437 1437 1437 1438 1439 1440 1441 1443 1445 1446 1448 1450 1453 1455 1457 1460 1462 1465 1467 1468 1470 1471 1471 1472 1472
1461 1460 1458 1457 1455 1454 1453 1451 1450 1448 1446 1445 1443 1441 1440 1439 1438 1438 1437 1437 1437 1438 1439 1440 1441 1442 1444 1446 1448 1449 1452 1454 1457 1459 1461 1463 1465 1466 1467 1468 1468 1467 1467
1458 1457 1456 1455 1453 1452 1451 1450 1448 1447 1446 1444 1442 1441 1440 1440 1439 1438 1438 1438 1438 1439 1440 1441 1442 1443 1445 1447 1449 1451 1453 1455 1457 1458 1460 1462 1463 1464 1464 1465 1464 1464 1463
1455 1454 1453 1452 1451 1450 1449 1448 1447 1446 1445 1444 1443 1442 1441 1440 1440 1440 1439 1440 1440 1441 1442 1443 1444 1445 1447 1449 1451 1453 1455 1456 1458 1459 1460 1460 1461 1461 1461 1461 1460 1460 1459
1452 1451 1451 1450 1450 1449 1448 1447 1446 1446 1445 1444 1443 1443 1442 1442 1442 1442 1442 1442 1443 1444 1444 1445 1447 1448 1450 1451 1453 1455 1456 1457 1458 1458 1459 1459 1459 1458 1458 1458 1457 1456 1455
1450 1449 1449 1448 1448 1448 1447 1447 1446 1446 1445 1445 1444 1444 1444 1444 1444 1444 1444 1445 1446 1447 1447 1448 1450 1451 1452 1454 1455 1456 1457 1457 1457 1457 1457 1457 1457 1456 1455 1455 1453 1452 1451
1447 1447 1447 1447 1447 1447 1446 1446 1446 1446 1446 1446 1446 1446 1446 1446 1447 1447 1447 1448 1449 1450 1451 1451 1453 1454 1455 1456 1456 1457 1457 1457 1457 1456 1456 1455 1454 1453 1452 1451 1450 1449 1447
1445 1445 1445 1446 1446 1446 1446 1446 1446 1446 1446 1447 1447 1448 1448 1449 1449 1450 1451 1451 1452 1453 1454 1454 1455 1456 1457 1457 1457 1457 1457 1457 1456 1455 1454 1453 1452 1450 1449 1448 1447 1445 1443
1443 1444 1444 1444 1445 1445 1446 1446 1446 1447 1447 1448 1449 1449 1450 1451 1452 1453 1453 1454 1455 1455 1456 1457 1457 1457 1458 1458 1457 1457 1456 1455 1455 1453 1452 1451 1449 1447 1446 1445 1443 1442 1440
1442 1442 1443 1444 1444 1445 1446 1446 1447 1447 1448 1449 1450 1451 1453 1454 1455 1455 1456 1457 1457 1458 1458 1458 1458 1458 1458 1458 1457 1456 1455 1454 1453 1451 1450 1448 1446 1444 1443 1441 1440 1438 1436
1440 1441 1442 1442 1443 1444 1445 1446 1447 1448 1450 1451 1452 1453 1455 1456 1456 1457 1458 1458 1459 1459 1459 1459 1459 1458 1458 1457 1456 1455 1453 1452 1451 1449 1447 1445 1443 1442 1440 1438 1437 1435 1433
1438 1439 1440 1441 1442 1444 1445 1446 1448 1449 1451 1452 1454 1455 1456 1457 1458 1458 1459 1459 1459 1460 1459 1459 1458 1458 1457 1456 1455 1453 1452 1450 1449 1447 1445 1443 1441 1439 1438 1436 1434 1432 1430
1436 1437 1438 1440 1441 1443 1445 1446 1448 1450 1452 1453 1454 1456 1457 1458 1459 1459 1459 1459 1459 1459 1459 1458 1457 1456 1455 1454 1452 1451 1449 1448 1446 1444 1442 1440 1438 1437 1435 1433 1431 1429 1427